Scottsdale, AZ

8:40 AM MST on December 07, 2016 (GMT -0700)
Scottsdale

Weather History for KSDL - March, 2014

Change the Weather History Date:

Sunday, March 2, 2014

  Actual Average Record
Temperature  
Mean Temperature 58 °F -  
Max Temperature 64 °F 66 °F 86 °F (2009)
Min Temperature 51 °F 45 °F 39 °F (1997)
Degree Days  
Heating Degree Days 8    
Growing Degree Days 8 (Base 50)    
Moisture  
Dew Point 48 °F    
Average Humidity 77    
Maximum Humidity 100    
Minimum Humidity 41    
Precipitation  
Precipitation 0.03 in - - ()
Sea Level Pressure  
Sea Level Pressure 30.05 in    
Wind  
Wind Speed 3 mph (SSE)    
Max Wind Speed 7 mph    
Max Gust Speed -    
Visibility 10 miles    
Events Rain    
Averages and records for this station are not official NWS values.
T = Trace of Precipitation, MM = Missing Value Source: NWS Daily Summary

Daily Weather History Graph

Daily Weather History Graph

Search for Another Location

Airport or City:

Trip Planner

Search our weather history database for the weather conditions in past years. The results will help you decide how hot, cold, wet, or windy it might be!

Date:

Astronomy

Mar. 02, 2014 Rise Set
Actual Time 6:54 AM MST 6:25 PM MST
Civil Twilight 6:29 AM MST 6:50 PM MST
Nautical Twilight 6:00 AM MST 7:19 PM MST
Astronomical Twilight 5:32 AM MST 7:47 PM MST
Moon 7:34 AM MST (3/2) 8:17 PM MST (3/2)
Length of Visible Light 12h 20m
Length of Day
11h 30m
Waxing Crescent, 3% of the Moon is Illuminated
Mar 2
Waxing Crescent
Mar 8
First Quarter
Mar 16
Full
Mar 23
Last Quarter
Mar 30
New

Hourly Weather History & Observations

Time (MST) Temp. Dew Point Humidity Pressure Visibility Wind Dir Wind Speed Gust Speed Precip Events Conditions
12:53 AM 52.0 °F 50.0 °F 93% 29.92 in 10.0 mi South 3.5 mph - N/A   Mostly Cloudy
1:53 AM 53.1 °F 50.0 °F 89% 29.95 in 10.0 mi Calm Calm - N/A   Overcast
2:26 AM 53.6 °F 51.8 °F 94% 29.98 in 8.0 mi Calm Calm - 0.00 in Rain Light Rain
2:53 AM 53.1 °F 51.1 °F 93% 29.96 in 9.0 mi ESE 4.6 mph - 0.03 in Rain Light Rain
3:09 AM 53.6 °F 51.8 °F 94% 29.99 in 10.0 mi Variable 3.5 mph - 0.00 in Rain Light Rain
3:17 AM 53.6 °F 51.8 °F 94% 30.00 in 10.0 mi SE 4.6 mph - 0.00 in   Overcast
3:26 AM 53.6 °F 51.8 °F 94% 30.00 in 10.0 mi SE 3.5 mph - 0.00 in   Overcast
3:53 AM 53.1 °F 51.1 °F 93% 29.96 in 10.0 mi SE 3.5 mph - 0.00 in   Overcast
4:53 AM 53.1 °F 52.0 °F 96% 29.99 in 10.0 mi SSE 3.5 mph - N/A   Overcast
5:02 AM 53.6 °F 51.8 °F 94% 30.02 in 10.0 mi SSE 4.6 mph - N/A   Overcast
5:13 AM 53.6 °F 51.8 °F 94% 30.03 in 10.0 mi SE 4.6 mph - N/A   Overcast
5:28 AM 51.8 °F 51.8 °F 100% 30.03 in 10.0 mi SSE 6.9 mph - N/A   Mostly Cloudy
5:37 AM 51.8 °F 50.0 °F 94% 30.03 in 10.0 mi SE 5.8 mph - N/A   Mostly Cloudy
5:53 AM 52.0 °F 50.0 °F 93% 30.01 in 10.0 mi SE 4.6 mph - N/A   Overcast
6:53 AM 51.1 °F 48.9 °F 92% 30.04 in 10.0 mi Calm Calm - N/A   Overcast
7:00 AM 51.8 °F 48.2 °F 88% 30.06 in 10.0 mi Calm Calm - N/A   Mostly Cloudy
7:53 AM 52.0 °F 48.0 °F 86% 30.06 in 10.0 mi Variable 3.5 mph - N/A   Mostly Cloudy
8:00 AM 51.8 °F 48.2 °F 88% 30.10 in 10.0 mi SSE 4.6 mph - N/A   Overcast
8:44 AM 53.6 °F 48.2 °F 82% 30.12 in 10.0 mi ESE 5.8 mph - N/A   Scattered Clouds
8:53 AM 54.0 °F 48.9 °F 83% 30.09 in 10.0 mi ESE 4.6 mph - N/A   Scattered Clouds
9:05 AM 53.6 °F 48.2 °F 82% 30.13 in 10.0 mi SE 6.9 mph - N/A   Mostly Cloudy
9:45 AM 55.4 °F 48.2 °F 77% 30.14 in 10.0 mi SSE 5.8 mph - N/A   Scattered Clouds
9:53 AM 55.9 °F 48.9 °F 77% 30.12 in 10.0 mi South 4.6 mph - N/A   Partly Cloudy
10:53 AM 57.9 °F 48.9 °F 72% 30.12 in 10.0 mi ESE 4.6 mph - N/A   Scattered Clouds
11:53 AM 60.1 °F 46.0 °F 60% 30.11 in 10.0 mi SSW 4.6 mph - N/A   Partly Cloudy
12:53 PM 61.0 °F 45.0 °F 56% 30.09 in 10.0 mi Calm Calm - N/A   Scattered Clouds
1:53 PM 63.0 °F 44.1 °F 50% 30.06 in 10.0 mi South 6.9 mph - N/A   Scattered Clouds
2:53 PM 64.9 °F 42.1 °F 43% 30.04 in 10.0 mi South 4.6 mph - N/A   Scattered Clouds
3:53 PM 64.9 °F 41.0 °F 42% 30.04 in 10.0 mi Variable 5.8 mph - N/A   Overcast
4:53 PM 64.0 °F 39.9 °F 41% 30.04 in 10.0 mi SW 4.6 mph - N/A   Overcast
5:53 PM 63.0 °F 43.0 °F 48% 30.05 in 10.0 mi SW 6.9 mph - N/A   Overcast
6:53 PM 62.1 °F 43.0 °F 50% 30.07 in 10.0 mi West 3.5 mph - N/A   Partly Cloudy
7:53 PM 61.0 °F 44.1 °F 54% 30.08 in 10.0 mi Calm Calm - N/A   Clear
8:53 PM 60.1 °F 46.9 °F 62% 30.10 in 10.0 mi North 3.5 mph - N/A   Clear
9:53 PM 59.0 °F 46.9 °F 64% 30.10 in 10.0 mi North 3.5 mph - N/A   Clear
10:53 PM 59.0 °F 46.9 °F 64% 30.09 in 10.0 mi Calm Calm - N/A   Clear
11:53 PM 57.0 °F 48.9 °F 74% 30.07 in 10.0 mi Calm Calm - N/A   Clear